Weather History for Gwinn, MI

Change the Weather History Date:

Monday, September 2, 2013

  Actual Average (KESC) Record (KESC)
Temperature  
Mean Temperature 54 °F -  
Max Temperature 60 °F 69 °F 84 °F (2011)
Min Temperature 49 °F 55 °F 35 °F (1976)
Degree Days  
Heating Degree Days 10    
Growing Degree Days 4 (Base 50)    
Moisture  
Dew Point 47 °F    
Average Humidity 82    
Maximum Humidity 94    
Minimum Humidity 63    
Precipitation  
Precipitation 0.00 in - - ()
Sea Level Pressure  
Sea Level Pressure 29.92 in    
Wind  
Wind Speed 12 mph (NNW)    
Max Wind Speed 23 mph    
Max Gust Speed 29 mph    
Visibility 10 miles    
Events      
Averages and records for this station are not official NWS values.
T = Trace of Precipitation, MM = Missing Value Source: NWS Daily Summary

Daily Weather History Graph

Daily Weather History Graph

Search for Another Location

Airport:

Trip Planner

Search our weather history database for the weather conditions in past years. The results will help you decide how hot, cold, wet, or windy it might be!

Date:

Astronomy

Sep. 02, 2013 Rise Set
Actual Time 7:11 AM EDT 8:25 PM EDT
Civil Twilight 6:40 AM EDT 8:56 PM EDT
Nautical Twilight 6:03 AM EDT 9:34 PM EDT
Astronomical Twilight 5:23 AM EDT 10:13 PM EDT
Moon 4:22 AM EDT (9/2) 6:43 PM EDT (9/2)
Length of Visible Light 14h 16m
Length of Day
13h 14m
Waning Crescent, 8% of the Moon is Illuminated
Sep 2
Waning Crescent
Sep 5
New
Sep 12
First Quarter
Sep 19
Full
Sep 26
Last Quarter

Hourly Weather History & Observations

Time (EDT) Temp. Dew Point Humidity Pressure Visibility Wind Dir Wind Speed Gust Speed Precip Events Conditions
12:17 AM 52.7 °F 49.1 °F 88% 29.86 in 10.0 mi NNW 11.5 mph 18.4 mph N/A   Overcast
12:36 AM 52.9 °F 48.6 °F 85% 29.86 in 10.0 mi NNW 13.8 mph 18.4 mph N/A   Overcast
12:57 AM 52.9 °F 48.4 °F 85% 29.86 in 10.0 mi NNW 9.2 mph 17.3 mph N/A   Overcast
1:17 AM 52.2 °F 48.7 °F 88% 29.86 in 10.0 mi NNW 10.4 mph - N/A   Overcast
1:37 AM 52.2 °F 47.8 °F 85% 29.86 in 10.0 mi NNW 13.8 mph 17.3 mph N/A   Overcast
1:57 AM 52.0 °F 46.8 °F 82% 29.86 in 10.0 mi NNW 15.0 mph 21.9 mph N/A   Overcast
2:16 AM 51.8 °F 46.8 °F 83% 29.87 in 10.0 mi NW 18.4 mph 23.0 mph N/A   Overcast
2:37 AM 51.6 °F 46.8 °F 83% 29.87 in 10.0 mi NW 13.8 mph 21.9 mph N/A   Overcast
2:57 AM 51.3 °F 46.8 °F 85% 29.87 in 10.0 mi NNW 11.5 mph 18.4 mph N/A   Overcast
3:17 AM 51.1 °F 46.6 °F 85% 29.87 in 10.0 mi NW 15.0 mph 19.6 mph N/A   Overcast
3:37 AM 50.9 °F 46.9 °F 86% 29.88 in 7.0 mi NNW 15.0 mph 19.6 mph N/A   Overcast
3:56 AM 50.9 °F 46.8 °F 86% 29.88 in 10.0 mi NNW 12.7 mph 18.4 mph N/A   Overcast
4:17 AM 50.5 °F 46.8 °F 87% 29.88 in 10.0 mi NNW 15.0 mph 18.4 mph N/A   Overcast
4:36 AM 50.5 °F 46.4 °F 86% 29.87 in 10.0 mi NNW 12.7 mph 20.7 mph N/A   Overcast
4:56 AM 50.4 °F 46.4 °F 86% 29.88 in 10.0 mi NNW 11.5 mph 17.3 mph N/A   Overcast
5:17 AM 50.4 °F 46.4 °F 86% 29.88 in 10.0 mi NNW 11.5 mph - N/A   Mostly Cloudy
5:36 AM 50.4 °F 46.2 °F 86% 29.88 in 10.0 mi NNW 11.5 mph - N/A   Mostly Cloudy
5:57 AM 50.5 °F 46.4 °F 86% 29.88 in 10.0 mi NNW 6.9 mph 16.1 mph N/A   Overcast
6:55 AM 50.0 °F 46.4 °F 87% 29.89 in 10.0 mi NNW 12.7 mph - N/A   Overcast
7:55 AM 50.0 °F 48.2 °F 94% 29.91 in 5.0 mi NNW 10.4 mph - N/A   Overcast
8:50 AM 50.0 °F 46.4 °F 87% 29.92 in 10.0 mi NNW 12.7 mph 18.4 mph N/A   Overcast
9:50 AM 51.8 °F 46.4 °F 82% 29.93 in 10.0 mi NNW 13.8 mph - N/A   Overcast
10:55 AM 51.8 °F 48.2 °F 88% 29.94 in 10.0 mi NNW 15.0 mph 21.9 mph N/A   Overcast
11:55 AM 53.6 °F 48.2 °F 82% 29.95 in 10.0 mi NNW 15.0 mph 24.2 mph N/A   Overcast
12:55 PM 53.6 °F 46.4 °F 77% 29.96 in 10.0 mi NNW 18.4 mph 28.8 mph N/A   Overcast
1:55 PM 55.4 °F 46.4 °F 72% 29.97 in 10.0 mi North 17.3 mph 27.6 mph N/A   Overcast
2:50 PM 55.4 °F 48.2 °F 77% 29.96 in 10.0 mi NNW 20.7 mph 26.5 mph N/A   Overcast
3:50 PM 57.2 °F 48.2 °F 72% 29.96 in 10.0 mi North 23.0 mph 26.5 mph N/A   Mostly Cloudy
4:50 PM 59.0 °F 48.2 °F 67% 29.95 in 10.0 mi North 16.1 mph 23.0 mph N/A   Mostly Cloudy
5:50 PM 60.8 °F 48.2 °F 63% 29.96 in 10.0 mi North 15.0 mph 24.2 mph N/A   Scattered Clouds
6:50 PM 59.0 °F 46.4 °F 63% 29.96 in 10.0 mi North 15.0 mph - N/A   Scattered Clouds
7:50 PM 57.2 °F 44.6 °F 63% 29.97 in 10.0 mi NNW 10.4 mph 17.3 mph N/A   Clear
8:50 PM 53.6 °F 46.4 °F 77% 29.98 in 10.0 mi NW 5.8 mph - N/A   Clear
9:48 PM 51.8 °F 46.4 °F 82% 29.99 in 10.0 mi Calm Calm - N/A   Clear
10:17 PM 50.9 °F 46.4 °F 85% 29.99 in 10.0 mi Calm Calm - N/A   Clear
10:37 PM 50.5 °F 46.4 °F 86% 29.99 in 10.0 mi Calm Calm - N/A   Clear
10:57 PM 49.6 °F 46.2 °F 88% 29.99 in 10.0 mi Calm Calm - N/A   Clear
11:16 PM 49.6 °F 46.4 °F 89% 29.99 in 10.0 mi WNW 3.5 mph - N/A   Clear
11:37 PM 49.3 °F 46.4 °F 90% 29.99 in 10.0 mi WNW 5.8 mph - N/A   Clear
11:57 PM 49.1 °F 46.4 °F 90% 30.00 in 10.0 mi WNW 5.8 mph - N/A   Clear